Home > Weather > Hamamatsu > Past weeks

Flag for Japan Weather for the Past 2 Weeks in Hamamatsu, Japan

Now
33 °F

Chilly.


Feels Like: 28 °F
Forecast: 31 / 53 °F
Wind: 6 mph from Northwest

Location: Omaezaki

Current Time: Feb 11, 2016 at 5:14:25 AM

Latest Report: Feb 11, 2016 at 4:00 AM


Visibility: 13 mi

Pressure: 30.29 "Hg

Humidity: 55%

Dew point: 19 °F

Location of HamamatsuLocation

Historic Weather in Hamamatsu — Graph

°F

Hamamatsu Temperature Yesterday

Maximum temperature yesterday: 51 °F (at 2:00 PM)
Minimum temperature yesterday: 36 °F (at 11:00 PM)
Average temperature yesterday: 42 °F

High & Low Weather Summary for the Past Weeks

 TemperatureHumidityPressure
High55 °F (Feb 5, 2:00 PM)97% (Jan 29, 3:00 PM)30.32 "Hg (Jan 29, 3:00 PM)
Low32 °F (Feb 8, 4:00 AM)19% (Feb 7, 3:00 PM)29.80 "Hg (Feb 9, 1:00 PM)
Average45 °F59%30.07 "Hg
* Reported Jan 27 3:00 AM — Feb 11 3:00 AM, Hamamatsu, Weather by CustomWeather, © 2016

Note: Actual official high and low records may vary slightly from our data, if they occured in-between our weather recording intervals... More about our weather records

Advertising

Hamamatsu Weather History for the Previous 24 Hours

 ConditionsComfort  
Time TempWeatherWind HumidityBarometerVisibility
3:00 AM
Thu, Feb 11
33 °FChilly.7 mph56%30.28 "Hg12 mi
2:00 AM33 °FChilly.7 mph58%30.27 "Hg12 mi
1:00 AM34 °FChilly.7 mph54%30.27 "Hg12 mi
12:00 AM34 °FChilly.6 mph56%30.25 "Hg12 mi
11:00 PM
Wed, Feb 10
36 °FChilly.6 mph49%30.24 "Hg12 mi
10:00 PM37 °FChilly.8 mph47%30.23 "Hg12 mi
9:00 PM39 °FChilly.12 mph43%30.22 "Hg12 mi
8:00 PM40 °FQuite cool.13 mph38%30.20 "Hg12 mi
7:00 PM42 °FQuite cool.15 mph36%30.18 "Hg12 mi
6:00 PM44 °FQuite cool.15 mph35%30.16 "Hg12 mi
5:00 PM46 °FCool.15 mph31%30.14 "Hg12 mi
4:00 PM49 °FCool.18 mph28%30.12 "Hg12 mi
3:00 PM51 °FCool.20 mph26%30.09 "Hg12 mi
2:00 PM51 °FCool.20 mph28%30.08 "Hg12 mi
12:00 PM50 °FCool.17 mph26%30.10 "Hg12 mi
5:00 AM38 °FChilly.18 mph64%30.07 "Hg12 mi
Weather by CustomWeather, © 2016

See weather overviewHow to use our weather pages